Location: Newark
(41.0400°S, 62.7845°W)
Time: 16:40:34
(UTC+00:00)

Vanguard 2 Rocket - Pass Details

Date: 28 November 2021
Orbit: 553 x 3325 km, 32.9° (Epoch: 23 January)

Event Time Altitude Azimuth Distance (km) Brightness Sun altitude
Rises 14:14:14 0° 275° (W) 5,401 10.6 60.4°
Reaches altitude 10° 14:18:40 10° 280° (W) 3,921 10.0 61.1°
Maximum altitude 14:27:18 42° 346° (NNW) 1,503 8.9 62.4°
Drops below altitude 10° 14:32:32 10° 56° (ENE) 2,381 9.7 63.2°
Sets 14:34:38 0° 64° (ENE) 3,115 10.0 63.5°
